{"data":{"norad_id":27612,"intl_designator":"2002-058H","name":"LATINSAT A","alt_names":[],"object_type":"PAYLOAD","status":"ACTIVE","operator":null,"country":"ARGN","launch_date":"2002-12-20","launch_site_code":"TYMSC","launch_vehicle":null,"mission":null,"orbit_class":"UNKNOWN","rcs_meters":0.033,"size_class":null,"mass_kg":null,"dimensions":null,"purposes":[],"wikipedia_slug":null,"has_3d_model":false,"image_url":null,"decayed_at":null,"tle_current":{"epoch":"2026-09-19T17:44:31.566336Z","epoch_age_seconds":80222,"freshness":"FRESH","line1":"1 27612U 02058H   26262.73925424  .00000623  00000+0  87977-4 0  9999","line2":"2 27612  64.5556  27.9740 0047176 233.6294 126.0457 14.85609564281671","mean_motion":14.85609564,"eccentricity":0.0047176,"inclination_deg":64.5556,"raan_deg":27.974,"arg_perigee_deg":233.6294,"mean_anomaly_deg":126.0457,"bstar":8.7977e-5,"rev_number":28167,"period_min":96.929909102281,"perigee_km":578.69807810182,"apogee_km":644.64833536438,"semimajor_km":6989.8102067331,"source":"CELESTRAK","updated_at":"2026-09-20T09:00:13.584727Z"}}}